Location: D�pe
(52.6057°N, 8.1808°E)
Time: 07:37:43
(UTC+00:00)

USA 281 - Pass Details

Date: 29 October 2020
Orbit: 1078 x 1081 km, 106.0° (Epoch: 28 November)

Event Time Altitude Azimuth Distance (km) Brightness Sun altitude
Rises 16:45:41 0° 156° (SSE) 3,865 6.0 -7.1°
Reaches altitude 10° 16:48:12 10° 158° (SSE) 2,913 5.4 -7.5°
Maximum altitude 16:54:45 74° 244° (WSW) 1,122 3.5 -8.5°
Drops below altitude 10° 17:01:21 10° 330° (NNW) 2,932 5.8 -9.5°
Sets 17:03:53 0° 332° (NNW) 3,892 6.4 -9.8°
